Time,TemperatureF,DewpointF,PressureIn,WindDirection,WindDirectionDegrees,WindSpeedMPH,WindSpeedGustMPH,Humidity,HourlyPrecipIn,Conditions,Clouds,dailyrainin,SolarRadiationWatts/m^2,SoftwareType,DateUTC
2013-06-15 00:04:00,58.1,48.3,29.94,South,180,0.2,0.0,70,0.00,CLR,,0.00,0.0,WeatherDisplay:10.37,2013-06-14 22:04:00,
2013-06-15 00:09:00,57.9,48.5,29.94,South,180,0.0,0.0,71,0.00,CLR,,0.00,0.0,WeatherDisplay:10.37,2013-06-14 22:09:00,
2013-06-15 00:14:00,57.7,48.3,29.94,South,180,0.0,0.0,71,0.00,CLR,,0.00,0.0,WeatherDisplay:10.37,2013-06-14 22:14:00,
2013-06-15 00:19:00,57.5,48.5,29.94,South,180,0.1,2.3,72,0.00,CLR,,0.00,0.0,WeatherDisplay:10.37,2013-06-14 22:19:00,
2013-06-15 00:24:00,57.3,48.3,29.94,South,180,0.0,0.0,72,0.00,CLR,,0.00,0.0,WeatherDisplay:10.37,2013-06-14 22:24:00,
2013-06-15 00:29:00,57.2,48.6,29.94,South,180,0.8,2.3,73,0.00,CLR,,0.00,0.0,WeatherDisplay:10.37,2013-06-14 22:29:00,
2013-06-15 00:34:00,57.1,48.5,29.93,South,180,1.0,3.5,73,0.00,CLR,,0.00,0.0,WeatherDisplay:10.37,2013-06-14 22:34:00,
2013-06-15 00:39:00,57.0,48.4,29.93,South,180,0.0,3.5,73,0.00,CLR,,0.00,0.0,WeatherDisplay:10.37,2013-06-14 22:39:00,
2013-06-15 00:44:00,56.9,48.3,29.93,South,180,0.0,0.0,73,0.00,CLR,,0.00,0.0,WeatherDisplay:10.37,2013-06-14 22:44:00,
2013-06-15 00:49:00,56.8,48.6,29.93,South,180,0.2,1.2,74,0.00,CLR,,0.00,0.0,WeatherDisplay:10.37,2013-06-14 22:49:00,
2013-06-15 00:54:00,56.8,48.6,29.93,South,180,0.0,0.0,74,0.00,CLR,,0.00,0.0,WeatherDisplay:10.37,2013-06-14 22:54:00,
2013-06-15 00:59:00,56.7,48.5,29.93,South,180,0.0,0.0,74,0.00,CLR,,0.00,0.0,WeatherDisplay:10.37,2013-06-14 22:59:00,
2013-06-15 01:04:00,56.6,48.4,29.92,South,180,0.0,1.2,74,0.00,CLR,,0.00,0.0,WeatherDisplay:10.37,2013-06-14 23:04:00,
2013-06-15 01:09:00,56.4,48.2,29.92,South,180,1.5,2.0,74,0.00,CLR,,0.00,0.0,WeatherDisplay:10.37,2013-06-14 23:09:00,
2013-06-15 01:14:00,56.4,48.2,29.92,South,177,3.2,4.0,74,0.00,CLR,,0.00,0.0,WeatherDisplay:10.37,2013-06-14 23:14:00,
2013-06-15 01:19:00,56.2,48.0,29.92,South,176,2.0,3.5,74,0.00,CLR,,0.00,0.0,WeatherDisplay:10.37,2013-06-14 23:19:00,
2013-06-15 01:24:00,56.2,48.0,29.92,South,176,2.7,3.5,74,0.00,CLR,,0.00,0.0,WeatherDisplay:10.37,2013-06-14 23:24:00,
2013-06-15 01:29:00,56.1,48.3,29.91,South,176,2.5,2.5,75,0.00,CLR,,0.00,0.0,WeatherDisplay:10.37,2013-06-14 23:29:00,
2013-06-15 01:34:00,55.9,48.1,29.91,South,176,2.1,4.0,75,0.00,CLR,,0.00,0.0,WeatherDisplay:10.37,2013-06-14 23:34:00,
2013-06-15 01:39:00,55.9,48.1,29.91,South,176,2.3,3.5,75,0.00,CLR,,0.00,0.0,WeatherDisplay:10.37,2013-06-14 23:39:00,
2013-06-15 01:44:00,55.8,48.0,29.90,South,176,3.4,4.0,75,0.00,CLR,,0.00,0.0,WeatherDisplay:10.37,2013-06-14 23:44:00,
2013-06-15 01:49:00,55.7,47.9,29.90,South,176,2.3,4.0,75,0.00,CLR,,0.00,0.0,WeatherDisplay:10.37,2013-06-14 23:49:00,
2013-06-15 01:54:00,55.7,48.2,29.90,South,172,2.1,5.8,76,0.00,CLR,,0.00,0.0,WeatherDisplay:10.37,2013-06-14 23:54:00,
2013-06-15 01:59:00,55.6,48.1,29.90,South,172,2.2,4.6,76,0.00,CLR,,0.00,0.0,WeatherDisplay:10.37,2013-06-14 23:59:00,
2013-06-15 02:04:00,55.6,48.1,29.90,SSE,167,4.3,5.8,76,0.00,CLR,,0.00,0.0,WeatherDisplay:10.37,2013-06-15 00:04:00,
2013-06-15 02:09:00,55.6,47.8,29.90,SSE,166,2.4,4.0,75,0.00,CLR,,0.00,0.0,WeatherDisplay:10.37,2013-06-15 00:09:00,
2013-06-15 02:14:00,55.5,47.7,29.89,SSE,166,2.3,4.6,75,0.00,CLR,,0.00,0.0,WeatherDisplay:10.37,2013-06-15 00:14:00,
2013-06-15 02:19:00,55.5,47.7,29.89,SSE,166,2.4,4.6,75,0.00,CLR,,0.00,0.0,WeatherDisplay:10.37,2013-06-15 00:19:00,
2013-06-15 02:24:00,55.5,48.0,29.89,SSE,166,3.2,3.5,76,0.00,CLR,,0.00,0.0,WeatherDisplay:10.37,2013-06-15 00:24:00,
2013-06-15 02:29:00,55.4,47.9,29.88,SSE,166,2.4,4.6,76,0.00,CLR,,0.00,0.0,WeatherDisplay:10.37,2013-06-15 00:29:00,
2013-06-15 02:34:00,55.4,47.9,29.88,SSE,166,2.5,4.6,76,0.00,CLR,,0.00,0.0,WeatherDisplay:10.37,2013-06-15 00:34:00,
2013-06-15 02:39:00,55.3,47.8,29.88,SSE,166,1.6,3.5,76,0.00,CLR,,0.00,0.0,WeatherDisplay:10.37,2013-06-15 00:39:00,
2013-06-15 02:44:00,55.3,47.8,29.88,SSE,166,0.5,2.0,76,0.00,CLR,,0.00,0.0,WeatherDisplay:10.37,2013-06-15 00:44:00,
2013-06-15 02:49:00,55.2,48.1,29.88,SSE,166,0.1,1.2,77,0.00,CLR,,0.00,0.0,WeatherDisplay:10.37,2013-06-15 00:49:00,
2013-06-15 02:54:00,55.1,48.0,29.88,SSE,166,0.7,3.5,77,0.00,CLR,,0.00,0.0,WeatherDisplay:10.37,2013-06-15 00:54:00,
2013-06-15 02:59:00,55.1,48.0,29.88,SSE,165,2.5,3.5,77,0.00,CLR,,0.00,0.0,WeatherDisplay:10.37,2013-06-15 00:59:00,
2013-06-15 03:04:00,55.0,47.9,29.87,SSE,165,0.0,2.3,77,0.00,CLR,,0.00,0.0,WeatherDisplay:10.37,2013-06-15 01:04:00,
2013-06-15 03:09:00,54.8,48.1,29.87,SSE,165,0.0,2.0,78,0.00,CLR,,0.00,0.0,WeatherDisplay:10.37,2013-06-15 01:09:00,
2013-06-15 03:14:00,54.8,48.1,29.87,SSE,165,2.3,4.0,78,0.00,CLR,,0.00,0.0,WeatherDisplay:10.37,2013-06-15 01:14:00,
2013-06-15 03:19:00,54.7,48.0,29.86,SSE,165,3.3,5.0,78,0.00,CLR,,0.00,0.0,WeatherDisplay:10.37,2013-06-15 01:19:00,
2013-06-15 03:24:00,54.6,48.2,29.86,SSE,165,1.2,3.5,79,0.00,CLR,,0.00,0.0,WeatherDisplay:10.37,2013-06-15 01:24:00,
2013-06-15 03:29:00,54.5,48.1,29.86,SSE,165,3.8,4.6,79,0.00,CLR,,0.00,0.0,WeatherDisplay:10.37,2013-06-15 01:29:00,
2013-06-15 03:34:00,54.3,47.9,29.86,SSE,164,3.1,5.8,79,0.00,CLR,,0.00,0.0,WeatherDisplay:10.37,2013-06-15 01:34:00,
2013-06-15 03:39:00,54.2,48.1,29.85,SSE,161,3.1,6.9,80,0.00,CLR,,0.00,0.0,WeatherDisplay:10.37,2013-06-15 01:39:00,
2013-06-15 03:44:00,54.0,47.9,29.85,SSE,161,3.3,6.0,80,0.00,CLR,,0.00,0.0,WeatherDisplay:10.37,2013-06-15 01:44:00,
2013-06-15 03:49:00,53.9,47.9,29.85,SSE,161,1.8,3.5,80,0.00,CLR,,0.00,0.0,WeatherDisplay:10.37,2013-06-15 01:49:00,
2013-06-15 03:54:00,53.9,48.2,29.85,SSE,161,2.5,4.6,81,0.00,CLR,,0.00,0.0,WeatherDisplay:10.37,2013-06-15 01:54:00,
2013-06-15 03:59:00,53.8,48.1,29.85,SSE,161,3.5,4.6,81,0.00,CLR,,0.00,0.0,WeatherDisplay:10.37,2013-06-15 01:59:00,
2013-06-15 04:04:00,53.6,47.9,29.84,SSE,161,2.5,4.6,81,0.00,CLR,,0.00,0.0,WeatherDisplay:10.37,2013-06-15 02:04:00,
2013-06-15 04:09:00,53.5,47.8,29.84,SSE,161,2.3,3.5,81,0.00,CLR,,0.00,0.0,WeatherDisplay:10.37,2013-06-15 02:09:00,
2013-06-15 04:14:00,53.5,47.8,29.84,SSE,161,0.0,0.0,81,0.00,CLR,,0.00,0.0,WeatherDisplay:10.37,2013-06-15 02:14:00,
2013-06-15 04:19:00,53.3,47.9,29.84,SSE,161,0.0,0.0,82,0.00,CLR,,0.00,0.0,WeatherDisplay:10.37,2013-06-15 02:19:00,
2013-06-15 04:24:00,53.3,47.9,29.84,SSE,161,0.0,0.0,82,0.00,CLR,,0.00,0.0,WeatherDisplay:10.37,2013-06-15 02:24:00,
2013-06-15 04:29:00,53.2,47.8,29.84,SSE,161,0.0,0.0,82,0.00,CLR,,0.00,0.0,WeatherDisplay:10.37,2013-06-15 02:29:00,
2013-06-15 04:34:00,53.2,47.8,29.83,SSE,161,0.0,0.0,82,0.00,CLR,,0.00,0.0,WeatherDisplay:10.37,2013-06-15 02:34:00,
2013-06-15 04:39:00,53.2,47.8,29.83,SSE,161,1.1,1.1,82,0.00,CLR,,0.00,0.0,WeatherDisplay:10.37,2013-06-15 02:39:00,
2013-06-15 04:44:00,53.3,48.2,29.83,SSE,161,1.6,3.5,83,0.00,CLR,,0.00,0.0,WeatherDisplay:10.37,2013-06-15 02:44:00,
2013-06-15 04:49:00,53.4,48.3,29.82,SSE,161,1.2,2.3,83,0.00,CLR,,0.00,0.0,WeatherDisplay:10.37,2013-06-15 02:49:00,
2013-06-15 04:54:00,53.5,48.4,29.82,SSE,161,4.8,6.9,83,0.00,CLR,,0.00,0.0,WeatherDisplay:10.37,2013-06-15 02:54:00,
2013-06-15 04:59:00,53.6,48.5,29.81,SSE,161,0.5,3.5,83,0.00,CLR,,0.00,0.0,WeatherDisplay:10.37,2013-06-15 02:59:00,
2013-06-15 05:04:00,53.7,48.6,29.81,SSE,161,1.7,4.6,83,0.00,CLR,,0.00,0.0,WeatherDisplay:10.37,2013-06-15 03:04:00,
2013-06-15 05:09:00,53.8,48.7,29.81,SSE,161,0.6,2.3,83,0.00,CLR,,0.00,0.0,WeatherDisplay:10.37,2013-06-15 03:09:00,
2013-06-15 05:14:00,53.9,48.8,29.81,SSE,161,0.4,1.0,83,0.00,CLR,,0.00,0.0,WeatherDisplay:10.37,2013-06-15 03:14:00,
2013-06-15 05:19:00,54.0,48.9,29.81,SSE,161,0.7,3.5,83,0.00,CLR,,0.00,5.0,WeatherDisplay:10.37,2013-06-15 03:19:00,
2013-06-15 05:24:00,54.0,48.9,29.80,SSE,161,0.0,0.0,83,0.00,CLR,,0.00,5.0,WeatherDisplay:10.37,2013-06-15 03:24:00,
2013-06-15 05:29:00,54.2,49.1,29.80,SSE,149,0.9,4.0,83,0.00,CLR,,0.00,5.0,WeatherDisplay:10.37,2013-06-15 03:29:00,
2013-06-15 05:34:00,54.3,49.2,29.80,SSE,148,2.2,8.1,83,0.00,CLR,,0.00,12.0,WeatherDisplay:10.37,2013-06-15 03:34:00,
2013-06-15 05:39:00,54.4,49.3,29.80,SSE,151,3.1,5.8,83,0.00,CLR,,0.00,9.0,WeatherDisplay:10.37,2013-06-15 03:39:00,
2013-06-15 05:44:00,54.5,49.1,29.80,SSE,161,3.1,6.9,82,0.00,CLR,,0.00,7.0,WeatherDisplay:10.37,2013-06-15 03:44:00,
2013-06-15 05:49:00,54.6,49.2,29.79,SSE,160,2.0,6.9,82,0.00,CLR,,0.00,12.0,WeatherDisplay:10.37,2013-06-15 03:49:00,
2013-06-15 05:54:00,54.8,49.4,29.79,South,171,2.2,8.0,82,0.00,CLR,,0.00,18.0,WeatherDisplay:10.37,2013-06-15 03:54:00,
2013-06-15 05:59:00,55.0,49.6,29.79,SSE,166,3.8,4.6,82,0.00,CLR,,0.00,18.0,WeatherDisplay:10.37,2013-06-15 03:59:00,
2013-06-15 06:01:00,55.0,49.6,29.79,South,169,1.3,4.6,82,0.00,CLR,,0.00,18.0,WeatherDisplay:10.37,2013-06-15 04:01:00,
2013-06-15 08:01:00,58.2,51.7,29.75,South,180,7.4,11.5,79,0.00,OVC,,0.00,142.0,WeatherDisplay:10.37,2013-06-15 06:01:00,
2013-06-15 08:06:00,58.5,51.6,29.75,SSW,207,6.8,11.5,78,0.00,OVC,,0.00,142.0,WeatherDisplay:10.37,2013-06-15 06:06:00,
2013-06-15 08:11:00,58.7,51.8,29.74,South,178,6.3,8.1,78,0.00,FEW,,0.00,160.0,WeatherDisplay:10.37,2013-06-15 06:11:00,
2013-06-15 08:16:00,58.9,52.0,29.74,South,190,7.3,11.5,78,0.00,FEW,,0.00,221.0,WeatherDisplay:10.37,2013-06-15 06:16:00,
2013-06-15 08:21:00,59.2,52.0,29.75,South,186,7.6,11.5,77,0.00,FEW,,0.00,174.0,WeatherDisplay:10.37,2013-06-15 06:21:00,
2013-06-15 08:26:00,59.4,52.2,29.74,South,185,7.1,12.0,77,0.00,FEW,,0.00,148.0,WeatherDisplay:10.37,2013-06-15 06:26:00,
2013-06-15 08:31:00,59.5,52.3,29.75,SSE,162,6.3,13.0,77,0.00,BKN,,0.00,181.0,WeatherDisplay:10.37,2013-06-15 06:31:00,
2013-06-15 08:36:00,59.7,52.5,29.74,SSW,196,5.6,11.5,77,0.00,BKN,,0.00,295.0,WeatherDisplay:10.37,2013-06-15 06:36:00,
2013-06-15 08:41:00,59.7,52.5,29.74,SSW,207,7.7,11.5,77,0.00,BKN,,0.00,105.0,WeatherDisplay:10.37,2013-06-15 06:41:00,
2013-06-15 08:46:00,59.8,52.6,29.74,South,177,7.2,12.7,77,0.00,BKN,,0.00,111.0,WeatherDisplay:10.37,2013-06-15 06:46:00,
2013-06-15 08:51:00,59.8,52.6,29.74,SW,228,8.9,21.9,77,0.00,BKN,,0.00,169.0,WeatherDisplay:10.37,2013-06-15 06:51:00,
2013-06-15 08:56:00,60.0,52.7,29.74,South,183,9.5,16.1,77,0.00,BKN,,0.00,204.0,WeatherDisplay:10.37,2013-06-15 06:56:00,
2013-06-15 09:01:00,60.1,52.5,29.74,SSW,194,6.7,11.5,76,0.00,BKN,,0.00,250.0,WeatherDisplay:10.37,2013-06-15 07:01:00,
2013-06-15 09:06:00,60.3,52.7,29.74,SSW,201,8.1,13.8,76,0.00,BKN,,0.00,156.0,WeatherDisplay:10.37,2013-06-15 07:06:00,
2013-06-15 09:11:00,60.4,52.4,29.74,South,179,12.3,18.4,75,0.00,BKN,,0.00,114.0,WeatherDisplay:10.37,2013-06-15 07:11:00,
2013-06-15 09:16:00,60.1,52.8,29.74,South,185,8.3,15.0,77,0.00,BKN,,0.00,81.0,WeatherDisplay:10.37,2013-06-15 07:16:00,
2013-06-15 09:21:00,59.7,53.2,29.74,SW,223,8.7,11.5,79,0.00,BKN,,0.00,65.0,WeatherDisplay:10.37,2013-06-15 07:21:00,
2013-06-15 09:29:00,59.3,53.1,29.74,WSW,248,8.9,12.7,80,0.00,BKN,,0.00,70.0,WeatherDisplay:10.37,2013-06-15 07:29:00,
2013-06-15 09:34:00,58.7,53.2,29.75,SW,231,8.1,12.7,82,0.00,BKN,,0.00,47.0,WeatherDisplay:10.37,2013-06-15 07:34:00,
2013-06-15 09:39:00,57.8,53.0,29.75,SSW,205,7.5,10.4,84,0.01,RA,,0.02,53.0,WeatherDisplay:10.37,2013-06-15 07:39:00,
2013-06-15 09:44:00,57.2,53.0,29.75,WSW,242,7.5,9.2,86,0.04,RA,,0.04,28.0,WeatherDisplay:10.37,2013-06-15 07:44:00,
2013-06-15 09:49:00,56.1,52.3,29.76,WSW,243,14.1,26.5,87,0.08,RA,,0.08,63.0,WeatherDisplay:10.37,2013-06-15 07:49:00,
2013-06-15 09:54:00,55.0,51.5,29.76,West,261,12.0,16.1,88,0.09,RA,,0.09,148.0,WeatherDisplay:10.37,2013-06-15 07:54:00,
2013-06-15 09:59:00,55.0,51.8,29.75,WSW,245,5.8,11.5,89,0.09,RA,,0.09,137.0,WeatherDisplay:10.37,2013-06-15 07:59:00,
2013-06-15 10:04:00,54.7,51.5,29.75,SW,219,9.6,13.8,89,0.09,RA,,0.09,84.0,WeatherDisplay:10.37,2013-06-15 08:04:00,
2013-06-15 10:09:00,54.6,51.4,29.76,SW,228,11.2,15.0,89,0.09,RA,,0.09,155.0,WeatherDisplay:10.37,2013-06-15 08:09:00,
2013-06-15 10:14:00,54.7,51.5,29.75,SW,228,3.3,8.1,89,0.09,RA,,0.09,199.0,WeatherDisplay:10.37,2013-06-15 08:14:00,
2013-06-15 10:19:00,55.2,52.3,29.75,SW,230,5.4,9.2,90,0.09,RA,,0.09,239.0,WeatherDisplay:10.37,2013-06-15 08:19:00,
2013-06-15 10:24:00,55.6,52.7,29.75,SW,225,5.9,9.0,90,0.09,RA,,0.09,155.0,WeatherDisplay:10.37,2013-06-15 08:24:00,
2013-06-15 10:29:00,55.8,52.9,29.76,SW,233,10.4,15.0,90,0.09,BKN,,0.09,162.0,WeatherDisplay:10.37,2013-06-15 08:29:00,
2013-06-15 10:34:00,56.0,52.8,29.76,SW,229,9.6,15.0,89,0.09,-RA,,0.09,216.0,WeatherDisplay:10.37,2013-06-15 08:34:00,
2013-06-15 10:39:00,56.1,52.6,29.76,SW,221,9.2,18.4,88,0.09,-RA,,0.09,260.0,WeatherDisplay:10.37,2013-06-15 08:39:00,
2013-06-15 10:44:00,56.4,52.6,29.77,SW,233,9.4,11.5,87,0.06,-RA,,0.09,272.0,WeatherDisplay:10.37,2013-06-15 08:44:00,
2013-06-15 10:49:00,56.8,53.0,29.77,SW,232,20.6,24.2,87,0.02,-RA,,0.09,316.0,WeatherDisplay:10.37,2013-06-15 08:49:00,
2013-06-15 10:54:00,57.2,52.7,29.78,SW,221,19.5,26.5,85,0.01,-RA,,0.09,216.0,WeatherDisplay:10.37,2013-06-15 08:54:00,
2013-06-15 10:59:00,57.2,51.4,29.78,West,279,14.2,26.5,81,0.01,-RA,,0.09,703.0,WeatherDisplay:10.37,2013-06-15 08:59:00,
2013-06-15 11:04:00,57.2,51.1,29.78,WSW,243,15.3,24.2,80,0.00,FEW,,0.09,833.0,WeatherDisplay:10.37,2013-06-15 09:04:00,
2013-06-15 11:09:00,57.4,51.3,29.78,SW,214,16.7,21.9,80,0.00,FEW,,0.09,849.0,WeatherDisplay:10.37,2013-06-15 09:09:00,
2013-06-15 11:14:00,57.3,50.8,29.78,SW,236,14.2,24.2,79,0.00,FEW,,0.09,888.0,WeatherDisplay:10.37,2013-06-15 09:14:00,
2013-06-15 11:19:00,57.6,51.1,29.79,SW,236,13.7,25.3,79,0.00,FEW,,0.09,988.0,WeatherDisplay:10.37,2013-06-15 09:19:00,
2013-06-15 11:24:00,57.7,50.5,29.78,WSW,252,18.8,21.9,77,0.00,FEW,,0.09,821.0,WeatherDisplay:10.37,2013-06-15 09:24:00,
2013-06-15 11:29:00,57.9,51.1,29.79,WSW,256,13.7,18.4,78,0.00,FEW,,0.09,780.0,WeatherDisplay:10.37,2013-06-15 09:29:00,
2013-06-15 11:34:00,58.2,50.6,29.79,WSW,246,12.3,16.1,76,0.00,FEW,,0.09,795.0,WeatherDisplay:10.37,2013-06-15 09:34:00,
2013-06-15 11:39:00,58.7,50.8,29.79,SW,221,15.0,20.7,75,0.00,FEW,,0.09,807.0,WeatherDisplay:10.37,2013-06-15 09:39:00,
2013-06-15 11:44:00,58.5,49.1,29.79,WSW,238,14.5,21.9,71,0.00,FEW,,0.09,812.0,WeatherDisplay:10.37,2013-06-15 09:44:00,
2013-06-15 11:49:00,58.4,48.6,29.80,SW,236,10.3,15.0,70,0.00,FEW,,0.09,812.0,WeatherDisplay:10.37,2013-06-15 09:49:00,
2013-06-15 11:54:00,58.7,49.3,29.80,SW,223,13.4,21.9,71,0.00,FEW,,0.09,817.0,WeatherDisplay:10.37,2013-06-15 09:54:00,
2013-06-15 11:59:00,59.1,50.1,29.80,West,266,12.8,16.1,72,0.00,FEW,,0.09,835.0,WeatherDisplay:10.37,2013-06-15 09:59:00,
2013-06-15 12:04:00,59.3,50.3,29.80,SW,229,12.7,19.6,72,0.00,FEW,,0.09,838.0,WeatherDisplay:10.37,2013-06-15 10:04:00,
2013-06-15 12:09:00,59.2,49.8,29.80,WSW,245,10.6,19.6,71,0.00,FEW,,0.09,833.0,WeatherDisplay:10.37,2013-06-15 10:09:00,
2013-06-15 12:14:00,59.5,50.1,29.80,West,264,13.0,17.3,71,0.00,FEW,,0.09,865.0,WeatherDisplay:10.37,2013-06-15 10:14:00,
2013-06-15 12:19:00,59.4,48.8,29.80,SW,233,11.0,24.2,68,0.00,FEW,,0.09,867.0,WeatherDisplay:10.37,2013-06-15 10:19:00,
2013-06-15 12:24:00,59.4,48.8,29.80,West,260,12.8,24.2,68,0.00,FEW,,0.09,902.0,WeatherDisplay:10.37,2013-06-15 10:24:00,
2013-06-15 12:29:00,59.5,49.7,29.81,WSW,240,13.8,24.2,70,0.00,FEW,,0.09,1025.0,WeatherDisplay:10.37,2013-06-15 10:29:00,
2013-06-15 12:34:00,59.7,49.1,29.81,WSW,238,13.9,24.2,68,0.00,FEW,,0.09,960.0,WeatherDisplay:10.37,2013-06-15 10:34:00,
2013-06-15 12:39:00,59.9,48.5,29.81,SW,232,17.3,23.0,66,0.00,FEW,,0.09,972.0,WeatherDisplay:10.37,2013-06-15 10:39:00,
2013-06-15 12:44:00,60.1,49.1,29.81,SW,236,10.0,19.6,67,0.00,FEW,,0.09,571.0,WeatherDisplay:10.37,2013-06-15 10:44:00,
2013-06-15 12:49:00,60.1,49.1,29.82,WSW,241,18.8,24.2,67,0.00,FEW,,0.09,1078.0,WeatherDisplay:10.37,2013-06-15 10:49:00,
2013-06-15 12:54:00,59.9,49.3,29.82,SW,236,13.9,20.0,68,0.00,FEW,,0.09,1013.0,WeatherDisplay:10.37,2013-06-15 10:54:00,
2013-06-15 12:59:00,60.2,50.0,29.81,SW,231,8.4,13.0,69,0.00,FEW,,0.09,1055.0,WeatherDisplay:10.37,2013-06-15 10:59:00,
2013-06-15 13:04:00,60.7,49.7,29.82,SW,234,15.1,26.5,67,0.00,BKN,,0.09,986.0,WeatherDisplay:10.37,2013-06-15 11:04:00,
2013-06-15 13:09:00,60.8,49.3,29.82,WSW,242,18.3,24.2,66,0.00,BKN,,0.09,288.0,WeatherDisplay:10.37,2013-06-15 11:09:00,
2013-06-15 13:14:00,60.6,48.7,29.82,SW,232,14.5,24.2,65,0.00,BKN,,0.09,1011.0,WeatherDisplay:10.37,2013-06-15 11:14:00,
2013-06-15 13:19:00,60.5,48.2,29.82,WSW,237,11.8,24.2,64,0.00,BKN,,0.09,243.0,WeatherDisplay:10.37,2013-06-15 11:19:00,
2013-06-15 13:24:00,60.4,49.0,29.82,WSW,240,17.1,23.0,66,0.00,BKN,,0.09,225.0,WeatherDisplay:10.37,2013-06-15 11:24:00,
2013-06-15 13:29:00,60.1,49.5,29.82,WSW,246,10.1,16.1,68,0.00,BKN,,0.09,292.0,WeatherDisplay:10.37,2013-06-15 11:29:00,
2013-06-15 13:34:00,59.8,48.0,29.82,SW,228,15.9,20.7,65,0.00,BKN,,0.09,255.0,WeatherDisplay:10.37,2013-06-15 11:34:00,
2013-06-15 13:39:00,59.8,48.4,29.82,SW,234,12.5,20.7,66,0.00,BKN,,0.09,218.0,WeatherDisplay:10.37,2013-06-15 11:39:00,
2013-06-15 13:44:00,59.8,47.6,29.82,West,259,13.3,24.2,64,0.00,BKN,,0.09,309.0,WeatherDisplay:10.37,2013-06-15 11:44:00,
2013-06-15 13:49:00,60.0,47.8,29.82,West,263,15.3,24.2,64,0.00,BKN,,0.09,1048.0,WeatherDisplay:10.37,2013-06-15 11:49:00,
2013-06-15 13:54:00,60.6,48.7,29.82,West,269,14.6,19.6,65,0.00,BKN,,0.09,1083.0,WeatherDisplay:10.37,2013-06-15 11:54:00,
2013-06-15 13:59:00,61.2,48.1,29.82,SW,230,20.0,25.3,62,0.00,BKN,,0.09,278.0,WeatherDisplay:10.37,2013-06-15 11:59:00,
2013-06-15 14:04:00,61.4,48.2,29.82,WSW,256,17.3,24.2,62,0.00,FEW,,0.09,1092.0,WeatherDisplay:10.37,2013-06-15 12:04:00,
2013-06-15 14:09:00,60.7,47.6,29.82,SSW,213,13.4,19.6,62,0.00,FEW,,0.09,962.0,WeatherDisplay:10.37,2013-06-15 12:09:00,
2013-06-15 14:14:00,61.5,48.3,29.82,West,259,13.1,17.3,62,0.00,FEW,,0.09,965.0,WeatherDisplay:10.37,2013-06-15 12:14:00,
2013-06-15 14:19:00,61.9,49.1,29.82,WSW,248,13.9,23.0,63,0.00,FEW,,0.09,993.0,WeatherDisplay:10.37,2013-06-15 12:19:00,
2013-06-15 14:24:00,61.9,47.8,29.83,WSW,253,19.4,26.5,60,0.00,FEW,,0.09,1002.0,WeatherDisplay:10.37,2013-06-15 12:24:00,
2013-06-15 14:29:00,61.9,48.3,29.83,WSW,242,19.9,28.8,61,0.00,FEW,,0.09,1027.0,WeatherDisplay:10.37,2013-06-15 12:29:00,
2013-06-15 14:34:00,61.8,47.7,29.83,WSW,238,15.7,26.5,60,0.00,SCT,,0.09,1076.0,WeatherDisplay:10.37,2013-06-15 12:34:00,
2013-06-15 14:39:00,61.6,48.9,29.83,WSW,248,16.6,24.2,63,0.00,SCT,,0.09,288.0,WeatherDisplay:10.37,2013-06-15 12:39:00,
2013-06-15 14:44:00,61.7,48.5,29.83,WSW,247,17.5,19.6,62,0.00,SCT,,0.09,1030.0,WeatherDisplay:10.37,2013-06-15 12:44:00,
2013-06-15 14:49:00,61.4,47.8,29.83,SW,236,19.5,24.2,61,0.00,SCT,,0.09,1041.0,WeatherDisplay:10.37,2013-06-15 12:49:00,
2013-06-15 14:54:00,61.5,48.8,29.83,WSW,240,15.5,19.0,63,0.00,SCT,,0.09,1013.0,WeatherDisplay:10.37,2013-06-15 12:54:00,
2013-06-15 14:59:00,61.8,49.0,29.83,WSW,248,14.6,28.8,63,0.00,SCT,,0.09,896.0,WeatherDisplay:10.37,2013-06-15 12:59:00,
2013-06-15 15:04:00,61.6,48.0,29.83,West,267,20.6,25.3,61,0.00,BKN,,0.09,905.0,WeatherDisplay:10.37,2013-06-15 13:04:00,
2013-06-15 15:09:00,61.7,47.6,29.83,SW,225,14.1,17.3,60,0.00,BKN,,0.09,895.0,WeatherDisplay:10.37,2013-06-15 13:09:00,
2013-06-15 15:14:00,62.3,47.8,29.84,SW,219,20.1,31.1,59,0.00,BKN,,0.09,863.0,WeatherDisplay:10.37,2013-06-15 13:14:00,
2013-06-15 15:19:00,62.1,47.1,29.84,SW,219,17.5,26.5,58,0.00,BKN,,0.09,867.0,WeatherDisplay:10.37,2013-06-15 13:19:00,
2013-06-15 15:24:00,62.5,48.0,29.83,SW,228,17.6,25.3,59,0.00,BKN,,0.09,889.0,WeatherDisplay:10.37,2013-06-15 13:24:00,
2013-06-15 15:29:00,62.4,47.4,29.83,WSW,244,17.2,24.2,58,0.00,BKN,,0.09,911.0,WeatherDisplay:10.37,2013-06-15 13:29:00,
2013-06-15 15:34:00,62.2,46.8,29.84,West,276,22.2,26.5,57,0.00,FEW,,0.09,867.0,WeatherDisplay:10.37,2013-06-15 13:34:00,
2013-06-15 15:39:00,62.3,47.3,29.84,WSW,244,17.4,27.6,58,0.00,FEW,,0.09,840.0,WeatherDisplay:10.37,2013-06-15 13:39:00,
2013-06-15 15:44:00,62.8,47.3,29.84,WSW,253,16.8,26.0,57,0.00,FEW,,0.09,830.0,WeatherDisplay:10.37,2013-06-15 13:44:00,
2013-06-15 15:49:00,62.7,47.7,29.84,SW,232,14.3,26.5,58,0.00,FEW,,0.09,875.0,WeatherDisplay:10.37,2013-06-15 13:49:00,
2013-06-15 15:54:00,62.5,48.0,29.84,West,271,20.8,26.5,59,0.00,FEW,,0.09,828.0,WeatherDisplay:10.37,2013-06-15 13:54:00,
2013-06-15 15:59:00,62.4,48.3,29.84,West,265,16.9,25.3,60,0.00,FEW,,0.09,810.0,WeatherDisplay:10.37,2013-06-15 13:59:00,
2013-06-15 16:04:00,62.6,48.0,29.84,SW,230,18.0,26.5,59,0.00,FEW,,0.09,805.0,WeatherDisplay:10.37,2013-06-15 14:04:00,
2013-06-15 16:09:00,62.8,47.3,29.84,SSW,212,18.9,26.5,57,0.00,FEW,,0.09,789.0,WeatherDisplay:10.37,2013-06-15 14:09:00,
2013-06-15 16:14:00,62.9,46.9,29.84,WSW,246,14.3,26.5,56,0.00,FEW,,0.09,766.0,WeatherDisplay:10.37,2013-06-15 14:14:00,
2013-06-15 16:19:00,62.4,46.0,29.84,WSW,240,20.8,24.2,55,0.00,FEW,,0.09,766.0,WeatherDisplay:10.37,2013-06-15 14:19:00,
2013-06-15 16:24:00,62.3,45.9,29.84,WNW,286,14.3,23.0,55,0.00,FEW,,0.09,752.0,WeatherDisplay:10.37,2013-06-15 14:24:00,
2013-06-15 16:29:00,62.2,44.8,29.84,WSW,243,21.0,29.9,53,0.00,FEW,,0.09,754.0,WeatherDisplay:10.37,2013-06-15 14:29:00,
2013-06-15 16:34:00,62.8,46.8,29.84,WSW,240,16.8,19.6,56,0.00,FEW,,0.09,733.0,WeatherDisplay:10.37,2013-06-15 14:34:00,
2013-06-15 16:39:00,63.2,45.8,29.84,SW,234,15.5,23.0,53,0.00,FEW,,0.09,728.0,WeatherDisplay:10.37,2013-06-15 14:39:00,
2013-06-15 16:44:00,62.9,45.5,29.84,WSW,251,20.9,28.8,53,0.00,FEW,,0.09,705.0,WeatherDisplay:10.37,2013-06-15 14:44:00,
2013-06-15 16:49:00,62.9,46.0,29.85,WSW,240,17.9,19.6,54,0.00,FEW,,0.09,700.0,WeatherDisplay:10.37,2013-06-15 14:49:00,
2013-06-15 16:54:00,62.7,45.8,29.84,SW,215,17.8,26.5,54,0.00,FEW,,0.09,694.0,WeatherDisplay:10.37,2013-06-15 14:54:00,
2013-06-15 16:59:00,62.7,46.3,29.85,WSW,246,18.9,24.2,55,0.00,FEW,,0.09,675.0,WeatherDisplay:10.37,2013-06-15 14:59:00,
2013-06-15 17:04:00,62.7,46.3,29.85,SW,232,16.0,34.5,55,0.00,FEW,,0.09,679.0,WeatherDisplay:10.37,2013-06-15 15:04:00,
2013-06-15 17:09:00,63.3,47.8,29.84,WSW,248,17.3,23.0,57,0.00,FEW,,0.09,664.0,WeatherDisplay:10.37,2013-06-15 15:09:00,
2013-06-15 17:14:00,63.1,46.6,29.85,SSW,213,18.4,24.2,55,0.00,FEW,,0.09,656.0,WeatherDisplay:10.37,2013-06-15 15:14:00,
2013-06-15 17:19:00,62.8,46.8,29.85,SW,228,17.4,24.2,56,0.00,FEW,,0.09,636.0,WeatherDisplay:10.37,2013-06-15 15:19:00,
2013-06-15 17:24:00,63.5,48.4,29.84,WSW,252,11.8,14.0,58,0.00,FEW,,0.09,654.0,WeatherDisplay:10.37,2013-06-15 15:24:00,
2013-06-15 17:29:00,63.4,46.9,29.84,SSW,211,17.4,24.2,55,0.00,FEW,,0.09,615.0,WeatherDisplay:10.37,2013-06-15 15:29:00,
2013-06-15 17:34:00,63.3,48.2,29.84,WSW,244,17.8,21.9,58,0.00,FEW,,0.09,606.0,WeatherDisplay:10.37,2013-06-15 15:34:00,
2013-06-15 17:39:00,63.7,49.1,29.84,WSW,253,10.8,19.6,59,0.00,FEW,,0.09,598.0,WeatherDisplay:10.37,2013-06-15 15:39:00,
2013-06-15 17:44:00,63.7,48.6,29.84,WSW,245,20.8,27.6,58,0.00,FEW,,0.09,606.0,WeatherDisplay:10.37,2013-06-15 15:44:00,
2013-06-15 17:49:00,63.6,48.5,29.85,SW,226,15.6,25.3,58,0.00,FEW,,0.09,592.0,WeatherDisplay:10.37,2013-06-15 15:49:00,
2013-06-15 17:54:00,63.6,49.0,29.84,SW,236,11.9,24.2,59,0.00,FEW,,0.09,570.0,WeatherDisplay:10.37,2013-06-15 15:54:00,
2013-06-15 17:59:00,63.6,48.5,29.84,SW,232,15.6,18.4,58,0.00,FEW,,0.09,587.0,WeatherDisplay:10.37,2013-06-15 15:59:00,
2013-06-15 18:04:00,63.5,48.4,29.84,WSW,256,14.1,23.0,58,0.00,FEW,,0.09,578.0,WeatherDisplay:10.37,2013-06-15 16:04:00,
2013-06-15 18:09:00,63.9,49.3,29.85,WSW,237,16.9,24.0,59,0.00,FEW,,0.09,524.0,WeatherDisplay:10.37,2013-06-15 16:09:00,
2013-06-15 18:14:00,63.6,49.0,29.85,SW,235,15.4,20.7,59,0.00,FEW,,0.09,512.0,WeatherDisplay:10.37,2013-06-15 16:14:00,
2013-06-15 18:19:00,63.6,49.0,29.85,SW,228,16.8,23.0,59,0.00,FEW,,0.09,506.0,WeatherDisplay:10.37,2013-06-15 16:19:00,
2013-06-15 18:24:00,63.4,48.8,29.84,WSW,255,13.2,19.6,59,0.00,SCT,,0.09,473.0,WeatherDisplay:10.37,2013-06-15 16:24:00,
2013-06-15 18:29:00,63.3,47.8,29.85,SW,219,12.0,21.0,57,0.00,SCT,,0.09,459.0,WeatherDisplay:10.37,2013-06-15 16:29:00,
2013-06-15 18:34:00,62.9,46.9,29.85,West,263,15.7,27.6,56,0.00,SCT,,0.09,445.0,WeatherDisplay:10.37,2013-06-15 16:34:00,
2013-06-15 18:39:00,62.4,47.4,29.85,WSW,248,12.7,26.5,58,0.00,SCT,,0.09,432.0,WeatherDisplay:10.37,2013-06-15 16:39:00,
2013-06-15 18:44:00,62.2,47.2,29.85,SW,233,17.6,24.2,58,0.00,SCT,,0.09,417.0,WeatherDisplay:10.37,2013-06-15 16:44:00,
2013-06-15 18:49:00,62.3,48.2,29.85,WSW,245,13.8,19.6,60,0.00,SCT,,0.09,403.0,WeatherDisplay:10.37,2013-06-15 16:49:00,
2013-06-15 18:54:00,62.1,48.0,29.85,SW,234,16.8,25.3,60,0.00,SCT,,0.09,388.0,WeatherDisplay:10.37,2013-06-15 16:54:00,
2013-06-15 18:59:00,61.6,48.0,29.86,WSW,249,12.4,24.2,61,0.00,SCT,,0.09,376.0,WeatherDisplay:10.37,2013-06-15 16:59:00,
2013-06-15 19:04:00,61.4,48.2,29.85,WSW,248,11.3,24.2,62,0.00,FEW,,0.09,359.0,WeatherDisplay:10.37,2013-06-15 17:04:00,
2013-06-15 19:09:00,61.3,47.7,29.85,WSW,254,16.7,21.9,61,0.00,FEW,,0.09,352.0,WeatherDisplay:10.37,2013-06-15 17:09:00,
2013-06-15 19:14:00,61.2,47.6,29.86,West,260,15.0,24.2,61,0.00,FEW,,0.09,330.0,WeatherDisplay:10.37,2013-06-15 17:14:00,
2013-06-15 19:19:00,61.6,47.6,29.85,SW,228,13.4,26.5,60,0.00,FEW,,0.09,322.0,WeatherDisplay:10.37,2013-06-15 17:19:00,
2013-06-15 19:24:00,61.1,46.2,29.85,SW,230,18.1,22.0,58,0.00,FEW,,0.09,105.0,WeatherDisplay:10.37,2013-06-15 17:24:00,
2013-06-15 19:29:00,60.7,45.8,29.85,SW,230,13.5,16.1,58,0.00,FEW,,0.09,381.0,WeatherDisplay:10.37,2013-06-15 17:29:00,
2013-06-15 19:34:00,61.8,46.4,29.84,SW,226,11.1,15.0,57,0.00,FEW,,0.09,299.0,WeatherDisplay:10.37,2013-06-15 17:34:00,
2013-06-15 19:39:00,61.9,45.0,29.84,WSW,239,16.1,28.8,54,0.00,FEW,,0.09,313.0,WeatherDisplay:10.37,2013-06-15 17:39:00,
2013-06-15 19:44:00,62.0,46.1,29.85,WSW,254,18.0,23.0,56,0.00,FEW,,0.09,269.0,WeatherDisplay:10.37,2013-06-15 17:44:00,
2013-06-15 19:49:00,61.8,46.4,29.85,WSW,238,12.7,17.3,57,0.00,FEW,,0.09,251.0,WeatherDisplay:10.37,2013-06-15 17:49:00,
2013-06-15 19:54:00,61.5,46.1,29.85,WSW,242,17.9,24.2,57,0.00,BKN,,0.09,109.0,WeatherDisplay:10.37,2013-06-15 17:54:00,
2013-06-15 19:59:00,60.8,46.4,29.85,SW,230,12.5,21.9,59,0.00,SCT,,0.09,116.0,WeatherDisplay:10.37,2013-06-15 17:59:00,
2013-06-15 20:04:00,60.4,46.4,29.84,WSW,238,12.9,19.6,60,0.00,BKN,,0.09,65.0,WeatherDisplay:10.37,2013-06-15 18:04:00,
2013-06-15 20:09:00,60.2,46.7,29.85,WSW,237,13.9,18.4,61,0.00,BKN,,0.09,51.0,WeatherDisplay:10.37,2013-06-15 18:09:00,
2013-06-15 20:14:00,60.0,47.3,29.85,SW,228,10.8,17.3,63,0.00,BKN,,0.09,54.0,WeatherDisplay:10.37,2013-06-15 18:14:00,
2013-06-15 20:19:00,59.8,47.6,29.85,SW,232,13.0,19.6,64,0.00,SCT,,0.09,88.0,WeatherDisplay:10.37,2013-06-15 18:19:00,
2013-06-15 20:24:00,59.9,47.2,29.85,WSW,242,17.4,24.0,63,0.00,SCT,,0.09,54.0,WeatherDisplay:10.37,2013-06-15 18:24:00,
2013-06-15 20:29:00,59.8,46.7,29.85,WSW,240,19.1,27.6,62,0.00,BKN,,0.09,35.0,WeatherDisplay:10.37,2013-06-15 18:29:00,
2013-06-15 20:34:00,59.6,46.1,29.85,WSW,244,14.1,19.6,61,0.00,SCT,,0.09,25.0,WeatherDisplay:10.37,2013-06-15 18:34:00,
2013-06-15 20:39:00,59.5,46.0,29.85,WSW,238,13.9,24.2,61,0.00,SCT,,0.09,37.0,WeatherDisplay:10.37,2013-06-15 18:39:00,
2013-06-15 20:44:00,59.4,45.9,29.85,WSW,244,22.1,27.6,61,0.00,SCT,,0.09,21.0,WeatherDisplay:10.37,2013-06-15 18:44:00,
2013-06-15 20:49:00,59.4,45.9,29.85,West,264,13.6,26.5,61,0.00,SCT,,0.09,19.0,WeatherDisplay:10.37,2013-06-15 18:49:00,
2013-06-15 20:54:00,59.2,46.2,29.85,WSW,248,15.9,20.0,62,0.00,SCT,,0.09,18.0,WeatherDisplay:10.37,2013-06-15 18:54:00,
2013-06-15 20:59:00,59.2,46.6,29.85,WSW,238,18.1,27.6,63,0.00,SCT,,0.09,16.0,WeatherDisplay:10.37,2013-06-15 18:59:00,
2013-06-15 21:04:00,59.1,46.5,29.85,SW,231,14.9,24.2,63,0.00,SCT,,0.09,19.0,WeatherDisplay:10.37,2013-06-15 19:04:00,
2013-06-15 21:09:00,59.1,46.9,29.85,SW,233,8.8,17.3,64,0.00,SCT,,0.09,32.0,WeatherDisplay:10.37,2013-06-15 19:09:00,
2013-06-15 21:14:00,59.1,46.9,29.85,SW,215,10.5,20.7,64,0.00,SCT,,0.09,16.0,WeatherDisplay:10.37,2013-06-15 19:14:00,
2013-06-15 21:19:00,59.1,47.3,29.85,WSW,252,11.6,20.0,65,0.00,SCT,,0.09,11.0,WeatherDisplay:10.37,2013-06-15 19:19:00,
2013-06-15 21:28:00,58.9,47.1,29.85,SW,233,17.3,24.2,65,0.00,SCT,,0.09,9.0,WeatherDisplay:10.37,2013-06-15 19:28:00,
2013-06-15 21:33:00,58.9,47.5,29.85,WSW,248,16.5,27.0,66,0.00,FEW,,0.09,12.0,WeatherDisplay:10.37,2013-06-15 19:33:00,
2013-06-15 21:38:00,58.8,47.4,29.85,WSW,249,12.6,24.0,66,0.00,FEW,,0.09,12.0,WeatherDisplay:10.37,2013-06-15 19:38:00,
2013-06-15 21:43:00,58.8,47.4,29.85,SW,227,17.5,21.9,66,0.00,FEW,,0.09,9.0,WeatherDisplay:10.37,2013-06-15 19:43:00,
2013-06-15 21:48:00,58.7,47.3,29.85,SW,222,20.6,27.6,66,0.00,FEW,,0.09,11.0,WeatherDisplay:10.37,2013-06-15 19:48:00,
2013-06-15 21:53:00,58.6,47.7,29.86,WSW,239,14.9,20.7,67,0.00,FEW,,0.09,7.0,WeatherDisplay:10.37,2013-06-15 19:53:00,
2013-06-15 21:58:00,58.5,48.0,29.86,WSW,240,19.2,25.3,68,0.00,FEW,,0.09,0.0,WeatherDisplay:10.37,2013-06-15 19:58:00,
2013-06-15 22:03:00,58.4,47.9,29.86,WSW,244,16.8,24.2,68,0.00,FEW,,0.09,0.0,WeatherDisplay:10.37,2013-06-15 20:03:00,
2013-06-15 22:08:00,58.3,48.2,29.86,SW,224,16.3,24.2,69,0.00,FEW,,0.09,0.0,WeatherDisplay:10.37,2013-06-15 20:08:00,
2013-06-15 22:13:00,58.2,48.4,29.86,SSW,209,11.4,19.6,70,0.00,FEW,,0.09,0.0,WeatherDisplay:10.37,2013-06-15 20:13:00,
2013-06-15 22:18:00,58.0,48.2,29.86,WSW,247,12.4,24.2,70,0.00,FEW,,0.09,0.0,WeatherDisplay:10.37,2013-06-15 20:18:00,
2013-06-15 22:23:00,58.0,47.9,29.87,SW,229,14.5,20.7,69,0.00,FEW,,0.09,0.0,WeatherDisplay:10.37,2013-06-15 20:23:00,
2013-06-15 22:28:00,57.9,47.8,29.87,WSW,240,14.5,25.3,69,0.00,FEW,,0.09,0.0,WeatherDisplay:10.37,2013-06-15 20:28:00,
2013-06-15 22:33:00,57.9,47.8,29.87,SW,226,14.9,24.2,69,0.00,CLR,,0.09,0.0,WeatherDisplay:10.37,2013-06-15 20:33:00,
2013-06-15 22:38:00,57.7,47.6,29.87,WSW,246,14.2,19.6,69,0.00,CLR,,0.09,0.0,WeatherDisplay:10.37,2013-06-15 20:38:00,
2013-06-15 22:43:00,57.6,47.5,29.87,SW,229,13.5,17.3,69,0.00,CLR,,0.09,0.0,WeatherDisplay:10.37,2013-06-15 20:43:00,
2013-06-15 22:48:00,57.5,47.0,29.87,SW,230,13.4,19.6,68,0.00,CLR,,0.09,0.0,WeatherDisplay:10.37,2013-06-15 20:48:00,
2013-06-15 22:53:00,57.4,46.9,29.87,WSW,237,12.0,21.9,68,0.00,CLR,,0.09,0.0,WeatherDisplay:10.37,2013-06-15 20:53:00,
2013-06-15 22:58:00,57.3,46.4,29.87,WSW,246,13.4,24.2,67,0.00,CLR,,0.09,0.0,WeatherDisplay:10.37,2013-06-15 20:58:00,
2013-06-15 23:03:00,57.1,46.6,29.87,SW,234,15.1,19.6,68,0.00,CLR,,0.09,0.0,WeatherDisplay:10.37,2013-06-15 21:03:00,
2013-06-15 23:08:00,56.8,46.7,29.87,WSW,246,13.5,24.2,69,0.00,CLR,,0.09,0.0,WeatherDisplay:10.37,2013-06-15 21:08:00,
2013-06-15 23:13:00,56.6,46.9,29.87,WSW,242,16.1,20.0,70,0.00,CLR,,0.09,0.0,WeatherDisplay:10.37,2013-06-15 21:13:00,
2013-06-15 23:18:00,56.4,47.1,29.87,SW,228,14.8,19.6,71,0.00,CLR,,0.09,0.0,WeatherDisplay:10.37,2013-06-15 21:18:00,
2013-06-15 23:23:00,56.3,47.4,29.87,WSW,254,14.2,19.6,72,0.00,CLR,,0.09,0.0,WeatherDisplay:10.37,2013-06-15 21:23:00,
2013-06-15 23:28:00,56.2,47.3,29.88,WSW,253,9.3,12.7,72,0.00,CLR,,0.09,0.0,WeatherDisplay:10.37,2013-06-15 21:28:00,
2013-06-15 23:33:00,56.0,47.4,29.87,SW,225,7.3,12.0,73,0.00,CLR,,0.09,0.0,WeatherDisplay:10.37,2013-06-15 21:33:00,
2013-06-15 23:38:00,55.9,47.3,29.87,SW,229,9.7,15.0,73,0.00,CLR,,0.09,0.0,WeatherDisplay:10.37,2013-06-15 21:38:00,
2013-06-15 23:43:00,55.9,47.3,29.87,WSW,248,13.0,17.3,73,0.00,CLR,,0.09,0.0,WeatherDisplay:10.37,2013-06-15 21:43:00,
2013-06-15 23:48:00,55.9,47.7,29.87,WSW,245,9.5,16.1,74,0.00,CLR,,0.09,0.0,WeatherDisplay:10.37,2013-06-15 21:48:00,
2013-06-15 23:53:00,55.9,47.7,29.87,SW,225,10.4,13.8,74,0.00,CLR,,0.09,0.0,WeatherDisplay:10.37,2013-06-15 21:53:00,
2013-06-15 23:58:00,55.8,48.0,29.87,SSW,213,12.3,20.7,75,0.00,CLR,,0.09,0.0,WeatherDisplay:10.37,2013-06-15 21:58:00,